This is the latest recevied weather packets stored in our database for station/object WX7FGZ-6. If no packets are shown the sender has not sent any weather packets the latest 10 day(s).
| Time | Temp. | Humidity | Pressure | Rain* | Wind** | Luminosity | Snow |
|---|---|---|---|---|---|---|---|
| 1777953626 | -2.22° C | 61% | 1015 hPa | 0 mm | - | - | - |
| 1777953326 | -2.22° C | 63% | 1015 hPa | 0 mm | - | - | - |
| 1777953026 | -2.22° C | 64% | 1015.1 hPa | 0 mm | - | - | - |
| 1777952483 | -2.22° C | 60% | 1014.9 hPa | 0 mm | - | - | - |
| 1777952183 | -2.22° C | 57% | 1014.8 hPa | 0 mm | - | - | - |
| 1777951883 | -2.22° C | 60% | 1014.5 hPa | 0 mm | - | - | - |
| 1777951844 | -2.22° C | 62% | 1014.4 hPa | 0 mm | - | - | - |
| 1777951583 | -2.22° C | 62% | 1014.4 hPa | 0 mm | - | - | - |
| 1777951282 | -2.22° C | 63% | 1014.5 hPa | 0 mm | - | - | - |
| 1777950982 | -2.22° C | 64% | 1015.3 hPa | 0 mm | - | - | - |
| 1777950850 | -1.67° C | 65% | 1015.4 hPa | 0 mm | - | - | - |
| 1777950575 | -1.67° C | 65% | 1015.4 hPa | 0 mm | - | - | - |
| 1777950275 | -1.67° C | 65% | 1015.2 hPa | 0 mm | - | - | - |
| 1777949975 | -1.67° C | 66% | 1014.9 hPa | 0 mm | - | - | - |
| 1777949675 | -1.67° C | 66% | 1015 hPa | 0 mm | - | - | - |
| 1777949375 | -1.67° C | 66% | 1014.8 hPa | 0 mm | - | - | - |
| 1777949075 | -1.67° C | 68% | 1014.6 hPa | 0 mm | - | - | - |
| 1777948775 | -1.67° C | 67% | 1014.9 hPa | 0 mm | - | - | - |
| 1777948475 | -1.67° C | 67% | 1014.8 hPa | 0 mm | - | - | - |
| 1777948174 | -1.67° C | 68% | 1014.8 hPa | 0 mm | - | - | - |
| 1777947875 | -1.67° C | 67% | 1014.7 hPa | 0 mm | - | - | - |
| 1777947574 | -1.67° C | 67% | 1014.4 hPa | 0 mm | - | - | - |
| 1777947274 | -1.67° C | 68% | 1014.7 hPa | 0 mm | - | - | - |
| 1777946609 | -1.11° C | 68% | 1014.3 hPa | 0 mm | - | - | - |
| 1777946309 | -1.11° C | 68% | 1015.2 hPa | 0 mm | - | - | - |
* Rain latest hour (hover to see other rain measurements)
** Current wind speed in m/s (hover to see current wind gust speed)